Location: B�rgermoos
(47.6500°N, 9.0667°E)
Time: 08:40:12
(UTC+00:00)

NOSS 8 (F) - Pass Details

Date: 18 September 2020
Orbit: 385 x 1787 km, 63.3° (Epoch: 27 October)

Event Time Altitude Azimuth Distance (km) Brightness Sun altitude
Rises 18:05:32 0° 220° (SW) 2,499 8.6 -6.9°
Reaches altitude 10° 18:07:46 10° 221° (SW) 1,522 7.5 -7.3°
Maximum altitude 18:11:00 86° 308° (NW) 399 4.2 -7.8°
Drops below altitude 10° 18:14:00 10° 40° (NE) 1,421 6.7 -8.3°
Sets 18:16:01 0° 41° (NE) 2,311 7.7 -8.7°
